#timestamp,LO_Frequency,Hit,StdDev 
1514185215.2,286046999.7,N
1514185235.9,286047000.9,N
1514185255.7,286046999.7,N
1514185275.6,286047002.5,N
1514185295.4,286047000.0,N
1514185315.2,286047001.0,N
1514185335.1,286047000.0,N
1514185336.0,286047000.0,N
1514185355.8,286047000.8,N
1514185375.7,286046998.7,N
1514185395.5,286047000.8,N
1514185415.3,286047001.0,N
1514185435.2,286047000.8,N
1514185455.0,286046998.2,N
1514185455.9,286046998.2,N
1514185475.8,286047002.3,N
1514185495.6,286047002.3,N
1514185515.4,286047002.1,N
1514185535.3,286047002.7,N
1514185555.1,286046999.9,N
1514185575.9,286047000.2,N
1514185595.7,286047002.6,N
1514185615.5,286047002.1,N
1514185635.4,286047002.3,N
1514185655.2,286047001.9,N
1514185675.1,286047002.6,N
1514185676.0,286047002.6,N
1514185695.8,286047002.7,N
1514185715.6,286047001.6,N
1514185735.5,286047001.6,N
1514185755.3,286047001.4,N
1514185775.1,286047002.1,N
1514185795.9,286046999.9,N
1514185815.7,286047000.2,N
1514185835.6,286047000.2,N
1514185855.4,286047002.0,N
1514185875.2,286046999.7,N
1514185895.1,286047002.7,N
1514185896.0,286047002.7,N
1514185915.8,286047001.5,N
1514185935.7,286047000.3,N
1514185955.5,286047000.4,N
1514185975.3,286047000.6,N
1514185995.2,286047002.8,N
1514186015.9,286047002.3,N
1514186035.7,286047000.4,N
1514186055.6,286047001.1,N
1514186075.4,286046999.8,N
1514186095.3,286047002.2,N
1514186115.1,286047001.6,N
1514186116.0,286047001.6,N
1514186135.8,286047001.4,N
1514186155.7,286047001.4,N
1514186175.5,286047000.3,N
1514186195.4,286047000.0,N
1514186215.2,286047000.9,N
1514186235.0,286047000.6,N
1514186235.9,286047000.6,N
1514186255.8,286047002.5,N
1514186275.6,286047002.3,N
1514186295.4,286047002.5,N
1514186315.3,286047002.6,N
1514186335.1,286047000.1,N
1514186355.9,286047000.9,N
1514186375.7,286046999.8,N
1514186395.5,286047002.6,N
1514186415.4,286047001.5,N
1514186435.2,286047002.8,N
1514186455.1,286047003.9,Y
1514186456.0,286047003.9,P
1514186475.8,286047004.4,P
1514186495.6,286047003.4,N
1514186515.5,286047004.0,Y
1514186535.3,286047000.7,P
1514186555.2,286047001.1,N
1514186575.9,286047000.9,N
1514186595.7,286047000.7,N
1514186615.6,286047001.2,N
1514186635.4,286047000.3,N
1514186655.3,286047000.5,N
1514186675.1,286046999.3,N
1514186676.0,286046999.3,N
1514186695.8,286046998.1,N
1514186715.7,286047000.9,N
1514186735.5,286046998.5,N
1514186755.3,286046996.5,N
1514186775.2,286046998.0,N
1514186795.0,286046995.1,Y
1514186795.9,286046995.1,P
1514186815.8,286046995.4,N
1514186835.6,286046997.2,N
1514186855.4,286046996.9,N
1514186875.3,286046997.9,N
1514186895.1,286046997.2,N
1514186915.9,286046997.0,N
1514186935.7,286046996.5,N
1514186955.5,286046997.2,N
1514186975.4,286046997.6,N
1514186995.2,286046995.8,Y
1514187015.1,286046999.5,P
1514187016.0,286046999.5,N
1514187035.8,286046999.6,N
1514187055.7,286046996.6,Y
1514187075.5,286046999.2,P
1514187095.3,286046999.1,P
1514187115.2,286046996.9,P
1514187135.9,286046997.4,N
1514187155.7,286046997.7,N
1514187175.6,286046996.8,Y
1514187195.4,286046999.3,P
1514187215.3,286046999.5,N
1514187235.1,286046997.0,P
1514187236.0,286046997.0,Y
1514187255.8,286046998.5,P
1514187275.7,286046999.6,P
1514187295.5,286046999.3,N
1514187315.3,286046999.2,N
1514187335.2,286046999.2,N
1514187355.0,286046996.6,Y
1514187355.9,286046996.6,P
1514187375.8,286046996.5,N
1514187395.6,286046999.6,N
1514187415.5,286046997.3,N
1514187435.3,286046997.2,N
1514187455.1,286046997.9,N
1514187475.9,286046997.5,N
1514187495.7,286046999.4,N
1514187515.5,286046997.7,N
1514187535.4,286046995.1,Y
1514187555.2,286046997.7,P
1514187575.1,286046998.0,P
1514187576.0,286046998.0,P
1514187595.8,286046997.8,Y
1514187615.6,286046998.7,P
1514187635.5,286046998.4,P
1514187655.3,286046999.5,N
1514187675.2,286046999.5,N
1514187695.9,286046999.4,N
1514187715.7,286046998.9,N
1514187735.6,286046999.3,N
1514187755.4,286046998.7,N
1514187775.2,286046998.5,N
1514187795.1,286046998.3,Y
1514187796.0,286046998.3,P
1514187815.8,286047000.8,N
1514187835.7,286046999.9,N
1514187855.5,286047002.7,N
1514187875.3,286047002.2,N
1514187895.2,286047002.1,N
1514187915.0,286047001.5,N
1514187915.9,286047001.5,N
1514187935.9,286047000.1,N
1514187955.7,286047000.5,N
1514187975.6,286047001.2,N
1514187995.4,286046998.5,N
1514188015.2,286046998.4,N
1514188035.1,286046996.5,N
1514188036.0,286046996.5,N
1514188055.8,286046996.5,N
1514188075.7,286046999.2,N
1514188095.5,286047000.8,N
1514188115.3,286046998.2,N
1514188135.2,286046999.2,N
1514188155.0,286046996.7,N
1514188155.9,286046996.7,N
1514188175.8,286046999.4,N
1514188195.6,286046996.5,N
1514188215.4,286046997.0,N
1514188235.3,286046996.9,N
1514188255.1,286046998.9,N
1514188275.8,286046999.2,N
1514188295.7,286046999.0,N
1514188315.5,286046999.4,N
1514188335.4,286046998.7,N
1514188355.2,286046999.1,N
1514188375.0,286046998.3,N
1514188375.9,286046998.3,N
1514188395.8,286046997.0,N
1514188415.6,286046996.5,N
1514188435.5,286046999.5,N
1514188455.3,286046997.8,N
1514188475.1,286046997.9,N
1514188495.9,286046998.0,N
1514188515.7,286046998.0,N
1514188535.6,286046997.8,N
1514188555.4,286046996.0,Y
1514188575.2,286046996.8,P
1514188595.1,286046997.7,P
1514188596.0,286046997.7,P
1514188615.8,286046997.8,Y
1514188635.7,286046998.9,P
1514188655.5,286046998.4,N
1514188675.3,286046998.6,N
1514188695.2,286047000.9,N
1514188715.0,286047000.0,N
1514188715.9,286047000.0,N
1514188735.7,286046998.1,N
1514188755.6,286046998.2,N
1514188775.4,286046998.5,N
1514188795.3,286047000.3,N
